www.pogodaiklimat.ru

Погода и климат >> Архив погоды >> Россия >> Забайкальский край >> Агинское


ПОГОДА в Агинском

  • Прогноз погоды в Агинском
  • Монитор погоды в Агинском
  • Климат города

АРХИВ ПОГОДЫ в Агинском

Время (UTC), дата Ветер
(напр.,м/с)
 
Видим.   Явления Облачность Т
(С)
Тd
(С)
f
(%)
Тe
(С)
Тes
(С)
Комфортность P
(гПа)
Po
(гПа)
Тmin
(С)
Tmax
(С)
R
(мм)
R24
(мм)
S
(см)
18 18.05 З 5
{19}
50 км 1/0
[Ci fib]
+3.5 -4.2 57 -1 -1 1014.1 933.2
21 18.05 З 4
{11}
50 км 10/0
[Ac lent Ci fib]
+2.3 -4.7 60 -2 -2 1016.5 935.1
00 19.05 З 7-11
{12}
50 км 10/0
[Ac lent Cs]
+4.7 -5.2 49 -0 +1 1019.2 938.1 +2.2
03 19.05 СЗ 6-11
{12}
50 км 10/0
[Ac lent Cs]
+8.4 -6.5 34 +5 +9 1017.5 937.6
06 19.05 СЗ 5
{13}
50 км 10/0
[Ac lent Cs]
+11.7 -10.1 21 +10 +16 1015.9 937.0
09 19.05 СЗ 7-12
{15}
50 км 10/0
[Cs]
+11.6 -11.0 19 +9 +10 1016.4 937.4
12 19.05 СЗ 3
{15}
50 км 10/0
[Ac lent Ci fib]
+8.8 -9.4 27 +7 +7 1019.5 939.6 +12.3
15 19.05 СЗ 3 50 км ясно +6.4 -9.8 30 +4 +4 1022.9 942.0
18 19.05 З 1 50 км ясно +1.8 -9.6 42 +1 +1 1026.0 943.6
21 19.05 С 3 50 км 10/0
[Ac lent Ci fib]
+2.8 -12.5 31 -0 -0 1027.3 945.0
00 20.05 С 4 50 км 10/0
[Cs]
+5.2 -14.5 23 +2 +6 1027.7 946.1 +0.5
03 20.05 СЗ 4 50 км 10/0
[Cs]
+7.5 -14.2 20 +5 +13 1026.1 945.2
06 20.05 З 3 50 км 10/0
[Cs]
+9.4 -13.5 18 +8 +18 опасность
простуды
1023.7 943.5
09 20.05 З 3 50 км 10/0
[Cs]
+11.0 -12.0 19 +10 +13 1021.1 941.6
12 20.05 Ю 2 50 км 10/0
[Ci fib]
+7.5 -7.6 33 +6 +6 1022.1 941.6 +11.3
15 20.05 З 1 50 км ясно +0.7 -6.4 59 -1 -1 1025.8 943.1
18 20.05 З 2 50 км ясно -4.0 -7.6 76 -8 -8 1027.6 943.4
21 20.05 З 1 50 км ясно -6.2 -8.7 82 -9 -8 1028.5 943.5
00 21.05 штиль 0 50 км ясно +4.7 -6.1 45 +4 +13 опасность
простуды
1025.0 943.5 -7.2
03 21.05 З 3 50 км ясно +14.4 -9.4 18 +14 +27 опасность
простуды
1020.1 941.5
06 21.05 З 2 50 км ясно +16.6 -9.4 16 +17 +32 опасность
простуды
1016.5 938.8
09 21.05 ЮЗ 4
{11}
50 км ясно +18.1 -9.7 14 +18 +21 1013.4 936.4
12 21.05 Ю 2
{11}
50 км ясно +13.3 -7.0 24 +13 +13 1014.0 935.7 +18.5
15 21.05 СЗ 1 50 км ясно +4.0 -4.3 55 +3 +3 1017.3 936.2
18 21.05 СЗ 1 50 км ясно +0.6 -4.9 67 -1 -1 1017.1 935.1
21 21.05 СЗ 2 50 км ясно -1.5 -5.9 72 -5 -5 1016.7 934.1
00 22.05 штиль 0 50 км 3/0
[Ci fib]
+10.9 -5.1 32 +11 +19 1012.0 933.3 -1.5
03 22.05 СЗ 8-15
{15}
50 км 10/8 960 м
[Cb cap Ci fib]
+17.3 -3.8 23 +16 +17 1008.7 931.8
06 22.05 З 11-17
{17}
50 км 4/4 1000 м
[Cu med, cong]
+19.4 -3.2 21 +18 +18 1006.8 930.6
09 22.05 СЗ 8-14
{17}
50 км 10/0
[Ac lent Ci fib]
+16.6 -8.4 17 +15 +16 1008.5 931.4
12 22.05 СЗ 4
{17}
50 км 8/0
[Ac lent Ci fib]
+13.2 -11.2 17 +12 +12 1011.3 933.1 +19.4
15 22.05 З 1 50 км ясно +2.9 -7.4 47 +2 +2 1016.4 935.0
18 22.05 СЗ 1 50 км 10/0
[Ac As]
+5.9 -7.0 39 +6 +6 1015.9 935.5
21 22.05 З 1 50 км 10/0
[As op]
+3.5 -3.7 59 +3 +3 1015.9 934.8
00 23.05 З 3 50 км 10/4 1000 м
[Sc As trans]
+8.6 -1.2 50 +7 +8 1014.3 934.8 +2.7
03 23.05 СЗ 4 50 км 10/4 1000 м
[Cu med, cong Ac trans Ci fib]
+12.4 +2.0 49 +11 +14 1011.7 933.5
06 23.05 СЗ 4 50 км 10/4 1000 м
[Cu med, cong Cs]
+15.7 +0.4 35 +15 +20 1009.9 932.6
09 23.05 СЗ 4
{11}
50 км 8/4 1000 м
[Sc diur, vesp Ci fib]
+17.1 +1.9 36 +17 +19 1008.3 931.5
12 23.05 З 1
{11}
50 км 10/1 1000 м
[Sc diur, vesp Ac lent Ci fib]
+13.5 +3.7 51 +14 +14 1009.5 931.7 +17.4
15 23.05 СЗ 1 50 км 1/0
[Ac lent]
+6.0 +2.6 79 +5 +5 1012.6 932.6
18 23.05 ЮЗ 2 50 км ясно +2.3 +1.0 91 -1 -1 1013.6 932.5
21 23.05 З 2 50 км 6/0
[Ac lent Ci fib]
+3.6 +1.7 87 +1 +1 1013.8 933.0
00 24.05 СЗ 3 50 км 1/0
[Ac lent]
+14.7 +4.3 50 +14 +19 1010.9 933.3 +1.5
03 24.05 СЗ 3 50 км 3/1 1000 м
[Cu med, cong Ac trans]
+20.1 +3.2 33 +21 +31 комфорт 1008.4 932.4
06 24.05 СЗ 3 50 км 10/3 1000 м
[Cu med, cong Ac trans Ci fib]
+21.6 +3.2 30 +22 +26 комфорт 1007.0 931.4
09 24.05 В 5 50 км 9/4 1000 м
[Sc diur, vesp Ac und]
+20.7 +4.9 35 +21 +22 комфорт 1007.2 931.4
12 24.05 ЮВ 3 50 км 10/0
[Ac trans Ci fib]
+15.0 +2.1 42 +14 +14 1011.5 933.9 +24.9
15 24.05 З 1 50 км ясно +7.9 +2.9 71 +7 +7 1014.6 934.9
18 24.05 СЗ 2 50 км ясно +3.4 +1.6 88 0 0 1015.5 934.5
21 24.05 З 2 50 км 10/0
[Ci fib]
+1.3 +0.4 94 -2 -2 1015.1 933.5
00 25.05 З 1 50 км 1/0
[Ci fib]
+12.9 +5.3 60 +13 +20 1010.6 932.5 +1.0
03 25.05 В 1 50 км 4/0
[Ci fib]
+24.5 +7.4 33 +25 +41 комфорт 1005.1 930.4
06 25.05 ЮЗ 4 50 км 4/0
[Ci fib]
+30.0 +1.2 16 +27 +37 жарко 1000.9 927.8
09 25.05 З 1 50 км 3/0
[Ci fib]
+31.2 -0.5 13 +28 +34 жарко 999.0 926.3
12 25.05 Ю 1 50 км 10/0
[Ac lent Ci fib]
+24.0 +5.9 31 +24 +24 комфорт 1000.4 925.9 +31.6
15 25.05 СЗ 2 50 км ясно +12.4 +7.1 70 +12 +12 1004.2 926.6

 

Местоположение метеостанции Агинское (Забайкальский край, Россия): широта 51.10 долгота 114.50 высота над уровнем моря 681 м.

В архиве по умолчанию представлена погода в Агинском за последнюю неделю. Архивные данные за месяц целиком и за предыдущие месяцы, начиная с января 2011 года, Вы можете получить, выбрав интересующий диапазон дат из раскрывающегося списка и нажав кнопку "Ввод!".

Внимание! Время в таблицах - всемирное. Для получения местного времени необходимо прибавить поправку, которая в Агинском равна 9 ч.

Смотрите также архив погоды в соседних городах и на ближайших метеорологических станциях:

Погода в Курорт-Дарасуне (Забайкальский край, Россия) (57 км)
Погода в Карымской (Забайкальский край, Россия) (61 км)
Погода в Оловянной (Забайкальский край, Россия) (72 км)
Погода в Дульдурге (Забайкальский край, Россия) (84 км)
Погода в Акше (Забайкальский край, Россия) (130 км)
Погода в Чите (Забайкальский край, Россия) (133 км)
Погода в Шилке (Забайкальский край, Россия) (135 км)
Погода в Улетах (Забайкальский край, Россия) (149 км)
Погода в Бургене (Забайкальский край, Россия) (158 км)
Погода в Соловьевске (Забайкальский край, Россия) (158 км)

Пояснения к столбцам:

Ветер - указаны скорость ветра в м/с - средняя за 10 мин, порывы в срок и между сроками (в фигурных скобках) и направление, откуда дует ветер: С - северный, СВ - северо-восточный, В - восточный, ЮВ - юго-восточный, Ю - южный, ЮЗ - юго-западный, З - западный, СЗ - северо-западный.
Видимость - горизонтальная дальность видимости в метрах или километрах. При видимости от 1 до 10 км при отсутствии осадков обычно наблюдается дымка, при ухудшении видимости до 1 км и менее - туман. В сухую погоду видимость может ухудшаться дымом, пылью или мглою.
Явления - указаны атмосферные явления, наблюдавшиеся в срок или в последний час перед сроком; фигурными скобками обозначены явления, наблюдавшиеся между сроками (за 1-3 часа до срока); квадратными скобками обозначены град или гололедные отложения с указанием их диаметра в мм.
Облачность - указаны через наклонную черту общая и нижняя облачность в баллах и высота нижней границы облаков в метрах; квадратными скобками обозначены формы облаков: Ci - перистые, Cs - перисто-слоистые, Cc - перисто-кучевые, Ac - высококучевые, As - высокослоистые, Sc - слоисто-кучевые, Ns - слоисто-дождевые, Cu - кучевые, Cb - кучево-дождевые. Подробнее классификацию облаков см. в Атласе облаков (PDF).
T - Температура воздуха - температура, измеренная на высоте 2 м над землей.
Td - Температура точки росы - температура, при понижении до которой содержащийся в воздухе водяной пар достигнет насыщения.
f - Относительная влажность воздуха - влажноcть воздуха, измеренная на высоте 2 м над землей.
Te - Эффективная температура - температура, которую ощущает одетый по сезону человек в тени. Характеристика душности погоды. При расчете учитывается влияние влажности воздуха и скорости ветра на теплоощущения человека.
Tes - Эффективная температура на солнце - температура, которую ощущает человек, с поправкой на солнечный нагрев. Характеристика знойности погоды. Зависит от высоты солнца над горизонтом, облачности и скорости ветра. Ночью, в пасмурную погоду, а также при ветре 12 м/с и более поправка равна нулю.
P - Атмосферное давление - приведенное к уровню моря атмосферное давление.
Po - Атмосферное давление - измеренное на уровне метеостанции атмосферное давление.
Tmin - Минимальная температура - минимум температуры воздуха на высоте 2 м над землей.
Tmax - Максимальная температура - максимум температуры воздуха на высоте 2 м над землей.
R - Количество осадков - Количество выпавших осадков за период времени, мм. При наведении курсора мыши на число - период времени, за который выпало указанное количество осадков.
R24 - Количество осадков - Количество выпавших осадков за 24 часа, мм.
S - Снежный покров - Высота снежного покрова, см. При наведении курсора мыши на число - состояние снежного покрова и степень покрытия местности в баллах.